GPS BIIF-5 (PRN 30)

Last updated on Tue Jul 01 2025 00:03:13 GMT+0000 (Coordinated Universal Time)

1 39533U 14008A 25181.18686613 .00000055 00000+0 00000+0 0 9990 2 39533 53.6183 163.6727 0078796 226.1070 133.2194 2.00564518 82620
UTC large
Height (km)
Speed (km/s)
/
Latitude / Longitude
Inclination (degrees)
Orbital Period (minutes)
Azimuth
Elevation
Range (km)
Doppler Factor

Next 0 passes for location: London (51.5072 / 0.1276)

Sorry there are no passes over London.